Tracking 19192 objects as of 20-Jun-2018
HD Live streaming from Space Station
objects crossing your sky now

ZHUHAI-1 OHS-04

Track ZHUHAI-1 OHS-04 now!
10-day predictions


NORAD ID: 43443
Int'l Code: 2018-040E
Perigee: 515.2 km
Apogee: 524.2 km
Inclination: 97.4 °
Period: 94.9 minutes
Semi major axis: 6890 km
RCS: Unknown
Launch date: April 26, 2018
Source: People's Republic of China (PRC)
Launch site: Jiuquan Satellite Launch Center, China (JSC)
aabbcc
Your satellite tracking list
Your tracking list is empty




NASA's NSSDC Master Catalog

Two Line Element Set (TLE):
1 43443U 18040E   18170.85495854  .00000841  00000-0  44875-4 0  9991
2 43443  97.3980 252.7208 0006598  89.8283  47.4867 15.17776185  8303
Source of the keplerian elements: AFSPC